• In Latvia
  • List of Countries
  • For 7 days
  • Water Temperature
  • Satellite Maps
  • Weather Map
  • Weather Widgets
  • user-avatar
    Login

    Hourly Weather Amslen

    Today, 20 May, Sunday

    Time Temperature Precipitation Wind Pressure Humidity
    00:00 +8°C° 0 mm 1 mps 687 mmHg 93%
    01:00 +8°C° 0 mm 1 mps 687 mmHg 94%
    02:00 +8°C° 0 mm 1 mps 687 mmHg 94%
    03:00 +8°C° 0 mm 1 mps 687 mmHg 93%
    04:00 +7°C° 0 mm 1 mps 687 mmHg 93%
    05:00 +8°C° 0 mm 1 mps 687 mmHg 92%
    06:00 +10°C° 0 mm 1 mps 687 mmHg 90%
    07:00 +11°C° 0 mm 1 mps 688 mmHg 88%
    08:00 +12°C° 0.1 mm 1 mps 688 mmHg 83%
    09:00 +13°C° 0.1 mm 1 mps 688 mmHg 78%
    10:00 +14°C° 0.1 mm 1 mps 688 mmHg 74%
    11:00 +15°C° 0.4 mm 2 mps 688 mmHg 72%
    12:00 +16°C° 0.4 mm 2 mps 688 mmHg 71%
    13:00 +16°C° 0.4 mm 2 mps 688 mmHg 70%
    14:00 +16°C° 0.5 mm 2 mps 687 mmHg 72%
    15:00 +16°C° 0.5 mm 2 mps 687 mmHg 73%
    16:00 +16°C° 0.5 mm 2 mps 687 mmHg 75%
    17:00 +15°C° 0.6 mm 2 mps 686 mmHg 79%
    18:00 +15°C° 0.6 mm 2 mps 686 mmHg 82%
    19:00 +14°C° 0.6 mm 2 mps 686 mmHg 86%
    20:00 +13°C° 0.1 mm 2 mps 686 mmHg 88%
    21:00 +12°C° 0.1 mm 2 mps 686 mmHg 90%
    22:00 +10°C° 0.1 mm 2 mps 686 mmHg 92%
    23:00 +9°C° 0 mm 2 mps 686 mmHg 92%

    Tomorrow, 21 May, Monday

    Time Temperature Precipitation Wind Pressure Humidity
    00:00 +9°C° 0 mm 2 mps 686 mmHg 91%
    01:00 +8°C° 0 mm 2 mps 686 mmHg 91%
    02:00 +8°C° 0 mm 2 mps 685 mmHg 91%
    03:00 +9°C° 0 mm 1 mps 685 mmHg 90%
    04:00 +9°C° 0 mm 1 mps 685 mmHg 90%
    05:00 +10°C° 0 mm 1 mps 685 mmHg 87%
    06:00 +11°C° 0 mm 1 mps 685 mmHg 84%
    07:00 +12°C° 0 mm 1 mps 686 mmHg 81%
    08:00 +15°C° 0 mm 1 mps 686 mmHg 72%
    09:00 +18°C° 0 mm 1 mps 686 mmHg 63%
    10:00 +21°C° 0 mm 1 mps 687 mmHg 54%
    11:00 +21°C° 0.3 mm 1 mps 686 mmHg 53%
    12:00 +22°C° 0.3 mm 1 mps 686 mmHg 52%
    13:00 +23°C° 0.3 mm 1 mps 686 mmHg 51%
    14:00 +22°C° 0.6 mm 1 mps 686 mmHg 54%
    15:00 +21°C° 0.6 mm 2 mps 685 mmHg 56%
    16:00 +20°C° 0.6 mm 2 mps 685 mmHg 59%
    17:00 +20°C° 0.6 mm 1 mps 685 mmHg 66%
    18:00 +19°C° 0.6 mm 1 mps 684 mmHg 74%
    19:00 +16°C° 0.6 mm 1 mps 684 mmHg 81%
    20:00 +15°C° 0.5 mm 1 mps 684 mmHg 84%
    21:00 +14°C° 0.5 mm 1 mps 684 mmHg 86%
    22:00 +12°C° 0.5 mm 1 mps 684 mmHg 89%
    23:00 +12°C° 0.1 mm 1 mps 684 mmHg 89%

    Day after tomorrow, 22 May, Tuesday

    Time Temperature Precipitation Wind Pressure Humidity
    00:00 +11°C° 0.1 mm 1 mps 684 mmHg 89%
    01:00 +11°C° 0.1 mm 1 mps 684 mmHg 90%
    02:00 +11°C° 0.2 mm 1 mps 684 mmHg 89%
    03:00 +10°C° 0.2 mm 1 mps 684 mmHg 89%
    04:00 +10°C° 0.2 mm 1 mps 684 mmHg 89%
    05:00 +11°C° 0.2 mm 1 mps 684 mmHg 86%
    06:00 +12°C° 0.2 mm 1 mps 684 mmHg 84%
    07:00 +13°C° 0.2 mm 1 mps 685 mmHg 82%
    08:00 +15°C° 0.2 mm 1 mps 685 mmHg 76%
    09:00 +18°C° 0.2 mm 1 mps 685 mmHg 70%
    10:00 +20°C° 0.2 mm 1 mps 686 mmHg 64%
    11:00 +20°C° 0.7 mm 1 mps 686 mmHg 64%
    12:00 +21°C° 0.7 mm 1 mps 686 mmHg 63%
    13:00 +21°C° 0.7 mm 1 mps 686 mmHg 63%
    14:00 +21°C° 1.1 mm 1 mps 685 mmHg 67%
    15:00 +20°C° 1.1 mm 1 mps 685 mmHg 71%
    16:00 +20°C° 1.1 mm 1 mps 685 mmHg 75%
    17:00 +19°C° 0.9 mm 1 mps 685 mmHg 79%
    18:00 +18°C° 0.9 mm 1 mps 685 mmHg 83%
    19:00 +15°C° 0.9 mm 0 mps 685 mmHg 87%
    20:00 +15°C° 0.3 mm 1 mps 686 mmHg 88%
    21:00 +14°C° 0.3 mm 1 mps 686 mmHg 90%
    22:00 +13°C° 0.3 mm 1 mps 686 mmHg 91%
    23:00 +12°C° 0.3 mm 1 mps 686 mmHg 91%

    23 May, Wednesday

    Time Temperature Precipitation Wind Pressure Humidity
    00:00 +12°C° 0.3 mm 1 mps 686 mmHg 92%
    01:00 +11°C° 0.3 mm 1 mps 686 mmHg 92%
    02:00 +11°C° 0.1 mm 1 mps 686 mmHg 92%
    03:00 +11°C° 0.1 mm 1 mps 686 mmHg 93%
    04:00 +10°C° 0.1 mm 1 mps 686 mmHg 93%
    05:00 +12°C° 0.1 mm 1 mps 686 mmHg 91%
    06:00 +13°C° 0.1 mm 1 mps 687 mmHg 90%
    07:00 +13°C° 0.1 mm 0 mps 687 mmHg 88%
    08:00 +16°C° 0.2 mm 1 mps 688 mmHg 81%
    09:00 +18°C° 0.2 mm 1 mps 688 mmHg 74%
    10:00 +20°C° 0.2 mm 1 mps 688 mmHg 68%
    11:00 +21°C° 0.4 mm 1 mps 688 mmHg 65%
    12:00 +21°C° 0.4 mm 1 mps 688 mmHg 63%
    13:00 +22°C° 0.4 mm 1 mps 688 mmHg 60%
    14:00 +21°C° 0.5 mm 2 mps 688 mmHg 64%
    15:00 +20°C° 0.5 mm 2 mps 688 mmHg 68%
    16:00 +20°C° 0.5 mm 2 mps 688 mmHg 72%
    17:00 +19°C° 0.7 mm 2 mps 688 mmHg 78%
    18:00 +19°C° 0.7 mm 1 mps 688 mmHg 84%
    19:00 +18°C° 0.7 mm 1 mps 688 mmHg 89%
    20:00 +16°C° 0.3 mm 1 mps 688 mmHg 90%
    21:00 +14°C° 0.3 mm 1 mps 688 mmHg 92%
    22:00 +13°C° 0.3 mm 1 mps 688 mmHg 93%
    23:00 +13°C° 0 mm 1 mps 688 mmHg 93%

    24 May, Thursday

    Time Temperature Precipitation Wind Pressure Humidity
    00:00 +13°C° 0 mm 1 mps 687 mmHg 93%
    01:00 +12°C° 0 mm 1 mps 687 mmHg 93%
    02:00 +12°C° 0 mm 1 mps 687 mmHg 93%
    03:00 +12°C° 0 mm 1 mps 687 mmHg 93%
    04:00 +12°C° 0 mm 1 mps 687 mmHg 93%
    05:00 +12°C° 0 mm 0 mps 687 mmHg 91%
    06:00 +13°C° 0 mm 0 mps 688 mmHg 90%
    07:00 +14°C° 0 mm 0 mps 688 mmHg 88%
    08:00 +16°C° 0 mm 0 mps 688 mmHg 81%
    09:00 +17°C° 0 mm 0 mps 688 mmHg 74%
    10:00 +21°C° 0 mm 1 mps 689 mmHg 67%
    11:00 +22°C° 0.3 mm 1 mps 689 mmHg 65%
    12:00 +23°C° 0.3 mm 1 mps 689 mmHg 62%
    13:00 +24°C° 0.3 mm 1 mps 688 mmHg 60%
    14:00 +23°C° 0.9 mm 1 mps 688 mmHg 62%
    15:00 +23°C° 0.9 mm 1 mps 688 mmHg 64%
    16:00 +23°C° 0.9 mm 1 mps 688 mmHg 66%
    17:00 +22°C° 0.7 mm 1 mps 688 mmHg 71%
    18:00 +21°C° 0.7 mm 1 mps 688 mmHg 77%
    19:00 +19°C° 0.7 mm 1 mps 688 mmHg 83%
    20:00 +18°C° 0.2 mm 1 mps 688 mmHg 86%
    21:00 +15°C° 0.2 mm 1 mps 688 mmHg 88%
    22:00 +14°C° 0.2 mm 1 mps 688 mmHg 91%
    23:00 +13°C° 0 mm 1 mps 688 mmHg 91%

    25 May, Friday

    Time Temperature Precipitation Wind Pressure Humidity
    00:00 +13°C° 0 mm 1 mps 687 mmHg 91%
    01:00 +13°C° 0 mm 1 mps 687 mmHg 91%
    02:00 +12°C° 0 mm 1 mps 687 mmHg 91%
    03:00 +12°C° 0 mm 1 mps 687 mmHg 91%
    04:00 +12°C° 0 mm 1 mps 687 mmHg 91%
    05:00 +13°C° 0 mm 1 mps 687 mmHg 88%
    06:00 +15°C° 0 mm 1 mps 688 mmHg 85%
    07:00 +15°C° 0 mm 0 mps 688 mmHg 82%
    08:00 +17°C° 0 mm 0 mps 688 mmHg 72%
    09:00 +19°C° 0 mm 0 mps 689 mmHg 63%
    10:00 +24°C° 0 mm 1 mps 689 mmHg 53%
    11:00 +24°C° 0 mm 1 mps 689 mmHg 50%
    12:00 +25°C° 0 mm 1 mps 689 mmHg 46%
    13:00 +26°C° 0 mm 1 mps 689 mmHg 43%
    14:00 +26°C° 0.1 mm 1 mps 689 mmHg 45%
    15:00 +26°C° 0.1 mm 1 mps 688 mmHg 46%
    16:00 +26°C° 0.1 mm 1 mps 688 mmHg 48%
    17:00 +24°C° 0.4 mm 1 mps 688 mmHg 56%
    18:00 +22°C° 0.4 mm 1 mps 688 mmHg 64%
    19:00 +21°C° 0.4 mm 1 mps 688 mmHg 73%
    20:00 +19°C° 0.1 mm 1 mps 688 mmHg 75%
    21:00 +18°C° 0.1 mm 1 mps 688 mmHg 77%
    22:00 +15°C° 0.1 mm 1 mps 688 mmHg 79%
    23:00 +15°C° 0 mm 1 mps 688 mmHg 80%
    Show more